Location: Unspecified
(0.0000°N, 0.0000°E)
Time: 13:52:03
(UTC+02:00)

Cosmos 1980 Rocket - Visible Passes

Search period start: 21 September 2018 00:00
Search period end: 01 October 2018 00:00
Orbit: 828 x 851 km, 71.0° (Epoch: 20 September)

Date Brightness Start Highest point End Pass type
(mag) Time Alt. Az. Time Alt. Az. Time Alt. Az.
21 Sep 4.5 22:04:16 10° NNW 22:04:49 13° NNW 22:04:49 13° NNW visible
22 Sep 3.6 21:48:36 10° N 21:50:52 25° N 21:50:52 25° N visible
23 Sep 2.4 21:32:57 10° N 21:37:16 52° NNE 21:37:16 52° NNE visible
24 Sep 2.1 21:17:19 10° N 21:22:48 61° ENE 21:24:15 45° SE visible
25 Sep 2.2 21:01:41 10° N 21:07:07 55° ENE 21:12:27 11° SSE visible
26 Sep 2.3 20:46:03 10° N 20:51:26 50° ENE 20:56:50 10° SSE visible
27 Sep 2.4 20:30:27 10° N 20:35:45 46° ENE 20:41:04 10° SSE visible
27 Sep 5.2 22:17:54 10° W 22:19:29 11° WSW 22:21:04 10° WSW visible
28 Sep 2.5 20:14:51 10° N 20:20:04 42° ENE 20:25:18 10° SE visible
28 Sep 5.1 22:01:33 10° W 22:03:47 12° WSW 22:06:03 10° SW visible
29 Sep 5.8 07:20:08 10° ESE 07:20:22 10° ESE 07:20:35 10° ESE visible
29 Sep 5.1 21:45:23 10° WNW 21:48:06 14° WSW 21:50:50 10° SW visible
30 Sep 5.1 21:29:17 10° WNW 21:32:25 15° WSW 21:35:33 10° SW visible
